Vertical_Velocity
-4 -1 -1 1 3 5 2 1 -2 -4 -4 -7 -2 -2 1 -4 -3 -2 -6 -3 -2 -0
-0 -3 -1 -2 -0 1 0 2 3 3 2 1 1 2 1 0 -4 -0 -1 -3 -3 -2
-0 -1 -1 -2 -1 -4 -3 -5 -1 0 3 4 2 -1 -2 -2 -0 -3 1 2 -0 1
-2 0 0 -3 -2 -3 -1 -2 -1 -1 -2 -2 -0 1 -2 -0 1 -2 -1 -0 1 0
-1 -0 0 -0 -3 -0 2 1 -1 -1 -1 1 -1 -1 0 -1 -2 2 1 -0 -2 2
2 1 -2 -1 -2 -2 -4 -2 1 -0 -1 -2 0 -1 1 -1 -2 -2 -2 -0 1 2
-3 0 1 -3 -3 -0 1 -0 -1 -1 -2 -0 -3 -2 0 1 1 1 1 -1 0 2
-1 -2 -0 1 -0 -2 -1 1 -0 1 1 1 1 1 1 0 -0 -2 -0 -1 -1 -1
5 6 0 -0 2 1 -0 -0 1 -1 0 1 2 3 2 0 -0 -1 -1 -1 -3 0
-4 -0 1 -0 -4 2 3 -4 1 -1 -3 -0 2 1 6 1 1 -0 2 3 3 2
2 -1 -0 0 0 2 -2 -1 -1 0 -2 -3 -2 5 6 5 -0 3 3 -1 3 -1
-0 2 2 -2 1 10 -1 4 4 1 -1 -5 8 -3 2 -2 -1 -3 -3 1 2 2
-3 -4 -0 -0 0 7 -6 -3 4 -3 1 4 -3 7 7 4 4 -4 -3 -4 -1 1
-4 -1 -5 1 2 2 -1 -2 2 1 5 1 1 -1 6 7 2 1 -0 1 -3 -2
Height
5709 5709 5710 5711 5712 5714 5715 5715 5715 5717 5718 5720 5723 5725 5726 5727 5728 5731 5732 5735 5736 5737
5708 5708 5708 5710 5711 5712 5713 5714 5715 5716 5718 5719 5720 5721 5721 5720 5722 5725 5726 5728 5730 5731
5707 5707 5706 5707 5708 5709 5709 5710 5712 5714 5715 5717 5718 5718 5718 5718 5719 5720 5721 5723 5724 5724
5703 5704 5704 5704 5704 5705 5706 5707 5709 5710 5711 5712 5712 5712 5713 5714 5714 5714 5714 5716 5717 5717
5700 5700 5699 5699 5700 5701 5702 5703 5705 5706 5707 5707 5708 5709 5710 5710 5709 5709 5709 5709 5708 5709
5693 5695 5695 5694 5695 5696 5698 5698 5699 5700 5701 5701 5701 5701 5701 5701 5701 5701 5701 5701 5701 5701
5686 5686 5687 5688 5689 5690 5690 5691 5692 5693 5693 5693 5693 5693 5693 5693 5693 5693 5693 5692 5692 5692
5678 5678 5679 5681 5682 5682 5682 5683 5683 5683 5684 5684 5685 5686 5686 5685 5684 5684 5684 5683 5683 5682
5671 5671 5671 5671 5672 5672 5673 5673 5672 5675 5675 5675 5676 5676 5676 5676 5675 5674 5673 5672 5671 5670
5656 5658 5660 5661 5660 5661 5662 5662 5662 5663 5663 5663 5664 5666 5665 5664 5661 5661 5660 5660 5658 5657
5648 5647 5648 5648 5649 5651 5653 5650 5651 5651 5651 5650 5652 5653 5652 5652 5649 5648 5647 5644 5644 5642
5635 5636 5635 5634 5636 5639 5638 5638 5638 5637 5636 5637 5639 5638 5640 5638 5635 5633 5631 5631 5630 5628
5621 5621 5622 5623 5623 5623 5622 5623 5622 5623 5624 5624 5624 5624 5625 5623 5621 5620 5618 5616 5614 5613
5607 5607 5607 5607 5607 5607 5607 5605 5606 5607 5607 5608 5608 5607 5608 5607 5605 5604 5602 5600 5599 5598